Regional Weather Roundup
Issued by NWS

Home | Current Version | Previous Version | Graphics & Text | Print | Product List | Glossary On
Versions: 1 2 3 4 5 6 7 8 9 10 11 12 13 14 15 16 17 18 19 20 21 22 23 24 25 26 27 28 29 30 31 32 33 34 35 36 37 38 39 40 41 42 43 44 45 46 47 48 49 50
000
ASUS43 KMKX 041500
RWRWI

WISCONSIN REGIONAL WEATHER ROUNDUP
NATIONAL WEATHER SERVICE MILWAUKEE/SULLIVAN WI
1000 AM CDT MON MAY 04 2015

NOTE: "FAIR" INDICATES FEW OR NO CLOUDS BELOW 12,000 FEET WITH NO
SIGNIFICANT WEATHER AND/OR OBSTRUCTIONS TO VISIBILITY.

WIZ001-002-006>008-014>016-023>028-041600-
NORTHWEST WISCONSIN

CITY           SKY/WX    TMP DP  RH WIND       PRES   REMARKS
SUPERIOR ARPT  SUNNY     57  40  51 W5        30.17R
ASHLAND        SUNNY     60  39  45 NW10      30.17R
HAYWARD        SUNNY     58  35  42 N10       30.15S
SIREN          SUNNY     59  32  35 N10       30.15F
CUMBERLAND     SUNNY     57  32  38 N13G21    30.15R
RICE LAKE      SUNNY     59  34  39 N14       30.15S
CHETEK         SUNNY     58  38  47 N13G21    30.14R
LADYSMITH      SUNNY     58  38  48 N14       30.14F
EAU CLAIRE     NOT AVBL
MENOMONIE      SUNNY     60  38  44 N14       30.14R
NEW RICHMOND   SUNNY     59  36  42 NE13G18   30.15R
OSCEOLA        SUNNY     60  35  39 N9        30.17S
$$

WIZ003>005-009-010-017-018-041600-
NORTH CENTRAL WISCONSIN

CITY           SKY/WX    TMP DP  RH WIND       PRES   REMARKS
MANITOWISH WTR SUNNY     55  36  48 N10G17    30.12R
ARBOR VITAE    SUNNY     57  38  50 N13       30.11R
WOODRUFF       SUNNY     57  38  50 N13       30.11R
RHINELANDER    SUNNY     57  39  51 N9        30.11R
EAGLE RIVER    SUNNY     56  36  46 N12G20    30.10S
LAND O LAKES   SUNNY     55  37  50 N10       30.12R
PHILLIPS       SUNNY     55  39  53 N9        30.11S
TOMAHAWK       SUNNY     56  40  56 N9        30.11S
MEDFORD        SUNNY     56  42  60 N8        30.11R
MERRILL        SUNNY     58  42  55 N9        30.10R
$$

WIZ029-030-035-036-043>047-041600-
CENTRAL WISCONSIN

CITY           SKY/WX    TMP DP  RH WIND       PRES   REMARKS
WAUSAU         SUNNY     61  40  45 N8        30.09R
MOSINEE        SUNNY     61  41  48 N8        30.11R
MARSHFIELD     SUNNY     63  40  42 N10       30.11R
STEVENS POINT  SUNNY     60  43  52 NE10      30.09R
WAUPACA        MOSUNNY   65  45  48 N9        30.07R
WAUTOMA        NOT AVBL
WISC RAPIDS      N/A     64  39  39 N16       30.10R
CAMP DOUGLAS   NOT AVBL
$$

WIZ011>013-019>022-031-037>040-048>050-041600-
NORTHEAST WISCONSIN

CITY           SKY/WX    TMP DP  RH WIND       PRES   REMARKS
ANTIGO         SUNNY     57  43  59 N8        30.09S
SHAWANO        MOSUNNY   65  44  48 NE9       30.07R
OCONTO         MOSUNNY   64  43  46 N9        30.05R
STURGEON BAY   PTSUNNY   61  41  48 N10G18    30.08R
GREEN BAY      MOSUNNY   67  44  43 N12       30.05R
MANITOWOC      NOT AVBL
APPLETON       MOSUNNY   63  43  48 N12       30.06R
CLINTONVILLE   MOSUNNY   63  46  55 N8        30.06R
OSHKOSH        PTSUNNY   65  54  67 NE12      30.05R
$$

WIZ032>034-041-042-053>061-041600-
SOUTHWEST WISCONSIN

CITY           SKY/WX    TMP DP  RH WIND       PRES   REMARKS
LA CROSSE      SUNNY     66  39  37 N12       30.11R
SPARTA         SUNNY     62  44  51 NE12      30.11R
VIROQUA        SUNNY     59  50  71 N14       30.10R
BOSCOBEL       PTSUNNY   65  56  72 VRB3      30.09R
PRAIRIE DU CHI CLOUDY    60  57  88 CALM      30.09R
PLATTEVILLE    PTSUNNY   63  59  87 N7        30.08S
$$

WIZ056-057-062-063-064-067-068-041600-
SOUTH CENTRAL WISCONSIN

CITY           SKY/WX    TMP DP  RH WIND       PRES   REMARKS
REEDSBURG      PTSUNNY   63  55  75 NW7       30.07R
BARABOO/DELLS  NOT AVBL
LONE ROCK      NOT AVBL
MINERAL POINT  CLOUDY    63  57  82 NW7       30.09R
MADISON        CLOUDY    64  57  78 N7        30.07R
MIDDLETON      CLOUDY    64  57  79 N3        30.08R
WATERTOWN      CLOUDY    61  60  99 W7        30.05R
MONROE         CLOUDY    61  55  82 CALM      30.07S
JANESVILLE     MOSUNNY   64  59  82 CALM      30.08R
$$

WIZ051-052-058>065-066-070>072-041600-
SOUTHEAST WISCONSIN

CITY           SKY/WX    TMP DP  RH WIND       PRES   REMARKS
MILWAUKEE      CLOUDY    68  54  60 W7        30.05R
WAUKESHA       PTSUNNY   63  55  77 W6        30.08R
MILWAUKEE/TIMM PTSUNNY   64  55  72 N10       30.06R
RACINE         CLOUDY    67  55  65 NW6       30.07R
BURLINGTON     CLOUDY    61  56  84 CALM      30.06R
KENOSHA        CLOUDY    64  58  80 W7        30.06R
FOND DU LAC    PTSUNNY   64  57  78 NE9       30.06R
SHEBOYGAN      CLOUDY    65  54  67 N13       30.04R
WEST BEND      CLOUDY    61  54  77 NW7       30.04R
JUNEAU         CLOUDY    61  56  84 N7        30.06R
$$

LSZ147-162-041600-
LAKE SUPERIOR

STATION/POSITION TIME  TEMP    WIND        PRES    WAVE
                       AIR SEA DIR/SP/G            HT/PER
                 (UTC) (F)     (DEG/KT/KT) (MB)    (FT/S)
W MID LAKE BUOY  1350   39 35  230/  8/ 10 1020.8R   1
DEVILS ISLAND    1400   43     240/  9/ 11 1021.4R
PORT WING        1400   51     260/  6/  7 1021.3R
SAXON HARBOR     1400   53        CALM     1021.0R
$$

LMZ867-665-643>646-041600-
LAKE MICHIGAN

STATION/POSITION TIME  TEMP    WIND        PRES    WAVE
                       AIR SEA DIR/SP/G            HT/PER
                 (UTC) (F)     (DEG/KT/KT) (MB)    (FT/S)
CHAMBERS ISLAND  1400   56     310/  6/  8 1017.3R
NORTHPORT PIER   1400   54     310/ 13/ 15 1016.6R
SISTER BAY       1417   56      10/ 10/ 11   N/A
KEWAUNEE LAKESHO 1400   63     360/  8/ 13 1015.7R
SHEBOYGAN LAKESH 1400   61     350/ 10/ 12 1016.6R
PORT WASHINGTON  1400   64     340/  6/ 12 1017.3R
ATWATER BUOY     1400   54     330/  4/  6 1017.8R
MILWAUKEE LAKESH 1400   64     310/  7/ 10   N/A
KENOSHA   LAKESH 1400   62     260/  6/  7 1017.3R
$$

TC  - TEMPERATURE IN CELSIUS
VSB - VISIBILITY IN STATUTE MILES
WCI - WIND CHILL INDEX
HX  - HEAT INDEX



USA.gov is the U.S. government's official web portal to all federal, state and local government web resources and services.